Year,Month,Day,Hour,Minute,Value (Times are PST for temperature in C)
2007,08,15,00,00,14.70
2007,08,15,00,01,14.70
2007,08,15,00,02,14.70
2007,08,15,00,03,14.70
2007,08,15,00,04,14.70
2007,08,15,00,05,14.60
2007,08,15,00,06,14.60
2007,08,15,00,07,14.60
2007,08,15,00,08,14.60
2007,08,15,00,09,14.50
2007,08,15,00,10,14.50
2007,08,15,00,11,14.50
2007,08,15,00,12,14.40
2007,08,15,00,13,14.40
2007,08,15,00,14,14.40
2007,08,15,00,15,14.40
2007,08,15,00,16,14.40
2007,08,15,00,17,14.30
2007,08,15,00,18,14.30
2007,08,15,00,19,14.30
2007,08,15,00,20,14.30
2007,08,15,00,21,14.30
2007,08,15,00,22,14.30
2007,08,15,00,23,14.30
2007,08,15,00,24,14.30
2007,08,15,00,25,14.20
2007,08,15,00,26,14.20
2007,08,15,00,27,14.20
2007,08,15,00,28,14.20
2007,08,15,00,29,14.20
2007,08,15,00,30,14.20
2007,08,15,00,31,14.20
2007,08,15,00,32,14.10
2007,08,15,00,33,14.10
2007,08,15,00,34,14.10
2007,08,15,00,35,14.00
2007,08,15,00,36,14.00
2007,08,15,00,37,13.90
2007,08,15,00,38,13.90
2007,08,15,00,39,13.90
2007,08,15,00,40,13.90
2007,08,15,00,41,13.80
2007,08,15,00,42,13.80
2007,08,15,00,43,13.80
2007,08,15,00,44,13.80
2007,08,15,00,45,13.80
2007,08,15,00,46,13.70
2007,08,15,00,47,13.70
2007,08,15,00,48,13.70
2007,08,15,00,49,13.70
2007,08,15,00,50,13.60
2007,08,15,00,51,13.60
2007,08,15,00,52,13.60
2007,08,15,00,53,13.60
2007,08,15,00,54,13.60
2007,08,15,00,55,13.60
2007,08,15,00,56,13.60
2007,08,15,00,57,13.50
2007,08,15,00,58,13.50
2007,08,15,00,59,13.50
2007,08,15,01,00,13.50
2007,08,15,01,01,13.50
2007,08,15,01,02,13.40
2007,08,15,01,03,13.40
2007,08,15,01,04,13.40
2007,08,15,01,05,13.40
2007,08,15,01,06,13.40
2007,08,15,01,07,13.40
2007,08,15,01,08,13.40
2007,08,15,01,09,13.40
2007,08,15,01,10,13.40
2007,08,15,01,11,13.40
2007,08,15,01,12,13.40
2007,08,15,01,13,13.40
2007,08,15,01,14,13.40
2007,08,15,01,15,13.40
2007,08,15,01,16,13.40
2007,08,15,01,17,13.40
2007,08,15,01,18,13.40
2007,08,15,01,19,13.40
2007,08,15,01,20,13.30
2007,08,15,01,21,13.30
2007,08,15,01,22,13.30
2007,08,15,01,23,13.30
2007,08,15,01,24,13.30
2007,08,15,01,25,13.30
2007,08,15,01,26,13.30
2007,08,15,01,27,13.20
2007,08,15,01,28,13.20
2007,08,15,01,29,13.20
2007,08,15,01,30,13.20
2007,08,15,01,31,13.20
2007,08,15,01,32,13.20
2007,08,15,01,33,13.20
2007,08,15,01,34,13.20
2007,08,15,01,35,13.10
2007,08,15,01,36,13.10
2007,08,15,01,37,13.10
2007,08,15,01,38,13.10
2007,08,15,01,39,13.10
2007,08,15,01,40,13.10
2007,08,15,01,41,13.10
2007,08,15,01,42,13.00
2007,08,15,01,43,13.00
2007,08,15,01,44,13.00
2007,08,15,01,45,12.90
2007,08,15,01,46,12.90
2007,08,15,01,47,12.90
2007,08,15,01,48,12.90
2007,08,15,01,49,12.90
2007,08,15,01,50,12.90
2007,08,15,01,51,12.90
2007,08,15,01,52,12.80
2007,08,15,01,53,12.80
2007,08,15,01,54,12.80
2007,08,15,01,55,12.80
2007,08,15,01,56,12.80
2007,08,15,01,57,12.80
2007,08,15,01,58,12.80
2007,08,15,01,59,12.70
2007,08,15,02,00,12.70
2007,08,15,02,01,12.70
2007,08,15,02,02,12.70
2007,08,15,02,03,12.70
2007,08,15,02,04,12.70
2007,08,15,02,05,12.70
2007,08,15,02,06,12.70
2007,08,15,02,07,12.70
2007,08,15,02,08,12.70
2007,08,15,02,09,12.60
2007,08,15,02,10,12.60
2007,08,15,02,11,12.60
2007,08,15,02,12,12.60
2007,08,15,02,13,12.60
2007,08,15,02,14,12.60
2007,08,15,02,15,12.60
2007,08,15,02,16,12.60
2007,08,15,02,17,12.60
2007,08,15,02,18,12.60
2007,08,15,02,19,12.60
2007,08,15,02,20,12.60
2007,08,15,02,21,12.60
2007,08,15,02,22,12.60
2007,08,15,02,23,12.60
2007,08,15,02,24,12.60
2007,08,15,02,25,12.60
2007,08,15,02,26,12.60
2007,08,15,02,27,12.50
2007,08,15,02,28,12.50
2007,08,15,02,29,12.50
2007,08,15,02,30,12.50
2007,08,15,02,31,12.50
2007,08,15,02,32,12.40
2007,08,15,02,33,12.40
2007,08,15,02,34,12.40
2007,08,15,02,35,12.40
2007,08,15,02,36,12.40
2007,08,15,02,37,12.30
2007,08,15,02,38,12.30
2007,08,15,02,39,12.30
2007,08,15,02,40,12.30
2007,08,15,02,41,12.30
2007,08,15,02,42,12.30
2007,08,15,02,43,12.30
2007,08,15,02,44,12.30
2007,08,15,02,45,12.30
2007,08,15,02,46,12.20
2007,08,15,02,47,12.20
2007,08,15,02,48,12.20
2007,08,15,02,49,12.20
2007,08,15,02,50,12.20
2007,08,15,02,51,12.20
2007,08,15,02,52,12.20
2007,08,15,02,53,12.20
2007,08,15,02,54,12.20
2007,08,15,02,55,12.20
2007,08,15,02,56,12.20
2007,08,15,02,57,12.10
2007,08,15,02,58,12.10
2007,08,15,02,59,12.10
2007,08,15,03,00,12.10
2007,08,15,03,01,12.10
2007,08,15,03,02,12.10
2007,08,15,03,03,12.00
2007,08,15,03,04,12.00
2007,08,15,03,05,12.00
2007,08,15,03,06,12.00
2007,08,15,03,07,11.90
2007,08,15,03,08,11.90
2007,08,15,03,09,11.90
2007,08,15,03,10,11.90
2007,08,15,03,11,11.90
2007,08,15,03,12,11.90
2007,08,15,03,13,11.90
2007,08,15,03,14,11.90
2007,08,15,03,15,11.90
2007,08,15,03,16,11.90
2007,08,15,03,17,11.90
2007,08,15,03,18,11.90
2007,08,15,03,19,11.90
2007,08,15,03,20,11.90
2007,08,15,03,21,11.90
2007,08,15,03,22,11.90
2007,08,15,03,23,11.90
2007,08,15,03,24,11.90
2007,08,15,03,25,11.90
2007,08,15,03,26,11.90
2007,08,15,03,27,11.90
2007,08,15,03,28,11.90
2007,08,15,03,29,11.90
2007,08,15,03,30,11.90
2007,08,15,03,31,11.90
2007,08,15,03,32,11.90
2007,08,15,03,33,11.90
2007,08,15,03,34,11.90
2007,08,15,03,35,11.90
2007,08,15,03,36,11.90
2007,08,15,03,37,11.90
2007,08,15,03,38,11.90
2007,08,15,03,39,11.90
2007,08,15,03,40,11.90
2007,08,15,03,41,11.90
2007,08,15,03,42,11.90
2007,08,15,03,43,11.90
2007,08,15,03,44,11.90
2007,08,15,03,45,11.80
2007,08,15,03,46,11.80
2007,08,15,03,47,11.80
2007,08,15,03,48,11.80
2007,08,15,03,49,11.80
2007,08,15,03,50,11.70
2007,08,15,03,51,11.70
2007,08,15,03,52,11.70
2007,08,15,03,53,11.70
2007,08,15,03,54,11.60
2007,08,15,03,55,11.60
2007,08,15,03,56,11.60
2007,08,15,03,57,11.60
2007,08,15,03,58,11.60
2007,08,15,03,59,11.60
2007,08,15,04,00,11.60
2007,08,15,04,01,11.60
2007,08,15,04,02,11.60
2007,08,15,04,03,11.60
2007,08,15,04,04,11.60
2007,08,15,04,05,11.60
2007,08,15,04,06,11.60
2007,08,15,04,07,11.60
2007,08,15,04,08,11.60
2007,08,15,04,09,11.60
2007,08,15,04,10,11.60
2007,08,15,04,11,11.60
2007,08,15,04,12,11.60
2007,08,15,04,13,11.60
2007,08,15,04,14,11.60
2007,08,15,04,15,11.60
2007,08,15,04,16,11.60
2007,08,15,04,17,11.60
2007,08,15,04,18,11.60
2007,08,15,04,19,11.60
2007,08,15,04,20,11.50
2007,08,15,04,21,11.50
2007,08,15,04,22,11.50
2007,08,15,04,23,11.50
2007,08,15,04,24,11.40
2007,08,15,04,25,11.40
2007,08,15,04,26,11.40
2007,08,15,04,27,11.40
2007,08,15,04,28,11.40
2007,08,15,04,29,11.30
2007,08,15,04,30,11.30
2007,08,15,04,31,11.30
2007,08,15,04,32,11.30
2007,08,15,04,33,11.20
2007,08,15,04,34,11.20
2007,08,15,04,35,11.20
2007,08,15,04,36,11.20
2007,08,15,04,37,11.20
2007,08,15,04,38,11.10
2007,08,15,04,39,11.10
2007,08,15,04,40,11.10
2007,08,15,04,41,11.10
2007,08,15,04,42,11.10
2007,08,15,04,43,11.10
2007,08,15,04,44,11.00
2007,08,15,04,45,11.00
2007,08,15,04,46,11.00
2007,08,15,04,47,11.10
2007,08,15,04,48,11.10
2007,08,15,04,49,11.10
2007,08,15,04,50,11.10
2007,08,15,04,51,11.10
2007,08,15,04,52,11.20
2007,08,15,04,53,11.20
2007,08,15,04,54,11.20
2007,08,15,04,55,11.20
2007,08,15,04,56,11.20
2007,08,15,04,57,11.20
2007,08,15,04,58,11.20
2007,08,15,04,59,11.20
2007,08,15,05,00,11.20
2007,08,15,05,01,11.20
2007,08,15,05,02,11.20
2007,08,15,05,03,11.20
2007,08,15,05,04,11.20
2007,08,15,05,05,11.20
2007,08,15,05,06,11.20
2007,08,15,05,07,11.10
2007,08,15,05,08,11.10
2007,08,15,05,09,11.10
2007,08,15,05,10,11.10
2007,08,15,05,11,11.10
2007,08,15,05,12,11.10
2007,08,15,05,13,11.10
2007,08,15,05,14,11.10
2007,08,15,05,15,11.10
2007,08,15,05,16,11.10
2007,08,15,05,17,11.10
2007,08,15,05,18,11.10
2007,08,15,05,19,11.10
2007,08,15,05,20,11.10
2007,08,15,05,21,11.10
2007,08,15,05,22,11.10
2007,08,15,05,23,11.10
2007,08,15,05,24,11.10
2007,08,15,05,25,11.10
2007,08,15,05,26,11.10
2007,08,15,05,27,11.10
2007,08,15,05,28,11.00
2007,08,15,05,29,11.00
2007,08,15,05,30,11.00
2007,08,15,05,31,11.00
2007,08,15,05,32,10.90
2007,08,15,05,33,10.90
2007,08,15,05,34,10.90
2007,08,15,05,35,10.90
2007,08,15,05,36,10.90
2007,08,15,05,37,10.90
2007,08,15,05,38,10.90
2007,08,15,05,39,10.90
2007,08,15,05,40,10.90
2007,08,15,05,41,10.90
2007,08,15,05,42,10.90
2007,08,15,05,43,10.90
2007,08,15,05,44,10.90
2007,08,15,05,45,10.90
2007,08,15,05,46,10.90
2007,08,15,05,47,10.90
2007,08,15,05,48,10.90
2007,08,15,05,49,10.90
2007,08,15,05,50,10.90
2007,08,15,05,51,10.80
2007,08,15,05,52,10.80
2007,08,15,05,53,10.80
2007,08,15,05,54,10.80
2007,08,15,05,55,10.80
2007,08,15,05,56,10.80
2007,08,15,05,57,10.80
2007,08,15,05,58,10.80
2007,08,15,05,59,10.80
2007,08,15,06,00,10.80
2007,08,15,06,01,10.80
2007,08,15,06,02,10.80
2007,08,15,06,03,10.80
2007,08,15,06,04,10.70
2007,08,15,06,05,10.70
2007,08,15,06,06,10.70
2007,08,15,06,07,10.70
2007,08,15,06,08,10.70
2007,08,15,06,09,10.70
2007,08,15,06,10,10.60
2007,08,15,06,11,10.60
2007,08,15,06,12,10.60
2007,08,15,06,13,10.60
2007,08,15,06,14,10.50
2007,08,15,06,15,10.50
2007,08,15,06,16,10.40
2007,08,15,06,17,10.40
2007,08,15,06,18,10.40
2007,08,15,06,19,10.40
2007,08,15,06,20,10.40
2007,08,15,06,21,10.30
2007,08,15,06,22,10.30
2007,08,15,06,23,10.30
2007,08,15,06,24,10.30
2007,08,15,06,25,10.30
2007,08,15,06,26,10.30
2007,08,15,06,27,10.30
2007,08,15,06,28,10.40
2007,08,15,06,29,10.40
2007,08,15,06,30,10.40
2007,08,15,06,31,10.40
2007,08,15,06,32,10.40
2007,08,15,06,33,10.40
2007,08,15,06,34,10.40
2007,08,15,06,35,10.40
2007,08,15,06,36,10.40
2007,08,15,06,37,10.40
2007,08,15,06,38,10.40
2007,08,15,06,39,10.50
2007,08,15,06,40,10.50
2007,08,15,06,41,10.50
2007,08,15,06,42,10.50
2007,08,15,06,43,10.50
2007,08,15,06,44,10.60
2007,08,15,06,45,10.60
2007,08,15,06,46,10.60
2007,08,15,06,47,10.70
2007,08,15,06,48,10.70
2007,08,15,06,49,10.70
2007,08,15,06,50,10.70
2007,08,15,06,51,10.70
2007,08,15,06,52,10.70
2007,08,15,06,53,10.70
2007,08,15,06,54,10.70
2007,08,15,06,55,10.70
2007,08,15,06,56,10.70
2007,08,15,06,57,10.80
2007,08,15,06,58,10.80
2007,08,15,06,59,10.80
2007,08,15,07,00,10.80
2007,08,15,07,01,10.80
2007,08,15,07,02,10.90
2007,08,15,07,03,10.90
2007,08,15,07,04,10.90
2007,08,15,07,05,10.90
2007,08,15,07,06,10.90
2007,08,15,07,07,10.90
2007,08,15,07,08,11.00
2007,08,15,07,09,11.00
2007,08,15,07,10,11.00
2007,08,15,07,11,11.10
2007,08,15,07,12,11.10
2007,08,15,07,13,11.10
2007,08,15,07,14,11.20
2007,08,15,07,15,11.20
2007,08,15,07,16,11.20
2007,08,15,07,17,11.30
2007,08,15,07,18,11.30
2007,08,15,07,19,11.30
2007,08,15,07,20,11.40
2007,08,15,07,21,11.40
2007,08,15,07,22,11.50
2007,08,15,07,23,11.60
2007,08,15,07,24,11.60
2007,08,15,07,25,11.70
2007,08,15,07,26,11.80
2007,08,15,07,27,11.80
2007,08,15,07,28,11.90
2007,08,15,07,29,12.00
2007,08,15,07,30,12.10
2007,08,15,07,31,12.20
2007,08,15,07,32,12.40
2007,08,15,07,33,12.60
2007,08,15,07,34,12.80
2007,08,15,07,35,13.00
2007,08,15,07,36,13.20
2007,08,15,07,37,13.30
2007,08,15,07,38,13.40
2007,08,15,07,39,13.60
2007,08,15,07,40,13.80
2007,08,15,07,41,13.90
2007,08,15,07,42,14.10
2007,08,15,07,43,14.30
2007,08,15,07,44,14.40
2007,08,15,07,45,14.60
2007,08,15,07,46,14.80
2007,08,15,07,47,14.90
2007,08,15,07,48,15.00
2007,08,15,07,49,15.10
2007,08,15,07,50,15.30
2007,08,15,07,51,15.50
2007,08,15,07,52,15.70
2007,08,15,07,53,15.80
2007,08,15,07,54,16.00
2007,08,15,07,55,16.10
2007,08,15,07,56,16.30
2007,08,15,07,57,16.40
2007,08,15,07,58,16.50
2007,08,15,07,59,16.60
2007,08,15,08,00,16.70
2007,08,15,08,01,16.70
2007,08,15,08,02,16.80
2007,08,15,08,03,16.80
2007,08,15,08,04,16.90
2007,08,15,08,05,17.00
2007,08,15,08,06,17.10
2007,08,15,08,07,17.10
2007,08,15,08,08,17.20
2007,08,15,08,09,17.30
2007,08,15,08,10,17.40
2007,08,15,08,11,17.50
2007,08,15,08,12,17.60
2007,08,15,08,13,17.80
2007,08,15,08,14,17.90
2007,08,15,08,15,18.00
2007,08,15,08,16,18.10
2007,08,15,08,17,18.20
2007,08,15,08,18,18.40
2007,08,15,08,19,18.50
2007,08,15,08,20,18.50
2007,08,15,08,21,18.60
2007,08,15,08,22,18.70
2007,08,15,08,23,18.70
2007,08,15,08,24,18.70
2007,08,15,08,25,18.70
2007,08,15,08,26,18.80
2007,08,15,08,27,18.80
2007,08,15,08,28,18.80
2007,08,15,08,29,18.90
2007,08,15,08,30,19.00
2007,08,15,08,31,19.00
2007,08,15,08,32,19.20
2007,08,15,08,33,19.30
2007,08,15,08,34,19.50
2007,08,15,08,35,19.60
2007,08,15,08,36,19.70
2007,08,15,08,37,19.80
2007,08,15,08,38,19.90
2007,08,15,08,39,20.00
2007,08,15,08,40,20.10
2007,08,15,08,41,20.20
2007,08,15,08,42,20.30
2007,08,15,08,43,20.50
2007,08,15,08,44,20.70
2007,08,15,08,45,20.80
2007,08,15,08,46,20.90
2007,08,15,08,47,21.00
2007,08,15,08,48,21.10
2007,08,15,08,49,21.20
2007,08,15,08,50,21.30
2007,08,15,08,51,21.40
2007,08,15,08,52,21.50
2007,08,15,08,53,21.60
2007,08,15,08,54,21.70
2007,08,15,08,55,21.80
2007,08,15,08,56,21.80
2007,08,15,08,57,21.90
2007,08,15,08,58,21.90
2007,08,15,08,59,22.00
2007,08,15,09,00,22.10
2007,08,15,09,01,22.20
2007,08,15,09,02,22.30
2007,08,15,09,03,22.40
2007,08,15,09,04,22.60
2007,08,15,09,05,22.70
2007,08,15,09,06,22.80
2007,08,15,09,07,22.90
2007,08,15,09,08,23.00
2007,08,15,09,09,23.00
2007,08,15,09,10,23.10
2007,08,15,09,11,23.10
2007,08,15,09,12,23.20
2007,08,15,09,13,23.20
2007,08,15,09,14,23.30
2007,08,15,09,15,23.30
2007,08,15,09,16,23.30
2007,08,15,09,17,23.40
2007,08,15,09,18,23.40
2007,08,15,09,19,23.40
2007,08,15,09,20,23.50
2007,08,15,09,21,23.50
2007,08,15,09,22,23.60
2007,08,15,09,23,23.70
2007,08,15,09,24,23.80
2007,08,15,09,25,23.80
2007,08,15,09,26,23.80
2007,08,15,09,27,23.90
2007,08,15,09,28,24.00
2007,08,15,09,29,24.10
2007,08,15,09,30,24.20
2007,08,15,09,31,24.20
2007,08,15,09,32,24.20
2007,08,15,09,33,24.20
2007,08,15,09,34,24.30
2007,08,15,09,35,24.30
2007,08,15,09,36,24.40
2007,08,15,09,37,24.50
2007,08,15,09,38,24.60
2007,08,15,09,39,24.70
2007,08,15,09,40,24.70
2007,08,15,09,41,24.70
2007,08,15,09,42,24.70
2007,08,15,09,43,24.70
2007,08,15,09,44,24.70
2007,08,15,09,45,24.70
2007,08,15,09,46,24.70
2007,08,15,09,47,24.80
2007,08,15,09,48,24.80
2007,08,15,09,49,24.80
2007,08,15,09,50,24.90
2007,08,15,09,51,24.90
2007,08,15,09,52,24.90
2007,08,15,09,53,24.90
2007,08,15,09,54,24.90
2007,08,15,09,55,25.00
2007,08,15,09,56,25.00
2007,08,15,09,57,25.00
2007,08,15,09,58,24.90
2007,08,15,09,59,24.90
2007,08,15,10,00,24.90
2007,08,15,10,01,24.90
2007,08,15,10,02,24.90
2007,08,15,10,03,24.90
2007,08,15,10,04,24.90
2007,08,15,10,05,24.90
2007,08,15,10,06,24.90
2007,08,15,10,07,24.90
2007,08,15,10,08,25.00
2007,08,15,10,09,24.90
2007,08,15,10,10,24.80
2007,08,15,10,11,24.70
2007,08,15,10,12,24.70
2007,08,15,10,13,24.70
2007,08,15,10,14,24.80
2007,08,15,10,15,24.80
2007,08,15,10,16,24.90
2007,08,15,10,17,24.90
2007,08,15,10,18,24.80
2007,08,15,10,19,24.80
2007,08,15,10,20,24.70
2007,08,15,10,21,24.70
2007,08,15,10,22,24.70
2007,08,15,10,23,24.70
2007,08,15,10,24,24.70
2007,08,15,10,25,24.60
2007,08,15,10,26,24.70
2007,08,15,10,27,24.70
2007,08,15,10,28,24.70
2007,08,15,10,29,24.70
2007,08,15,10,30,24.70
2007,08,15,10,31,24.70
2007,08,15,10,32,24.70
2007,08,15,10,33,24.70
2007,08,15,10,34,24.70
2007,08,15,10,35,24.80
2007,08,15,10,36,24.80
2007,08,15,10,37,24.80
2007,08,15,10,38,24.90
2007,08,15,10,39,24.90
2007,08,15,10,40,24.90
2007,08,15,10,41,24.90
2007,08,15,10,42,24.90
2007,08,15,10,43,24.70
2007,08,15,10,44,24.70
2007,08,15,10,45,24.70
2007,08,15,10,46,24.70
2007,08,15,10,47,24.80
2007,08,15,10,48,24.80
2007,08,15,10,49,24.80
2007,08,15,10,50,24.80
2007,08,15,10,51,24.70
2007,08,15,10,52,24.80
2007,08,15,10,53,24.90
2007,08,15,10,54,24.90
2007,08,15,10,55,24.90
2007,08,15,10,56,24.90
2007,08,15,10,57,24.90
2007,08,15,10,58,25.00
2007,08,15,10,59,25.00
2007,08,15,11,00,25.00
2007,08,15,11,01,25.10
2007,08,15,11,02,25.10
2007,08,15,11,03,25.20
2007,08,15,11,04,25.30
2007,08,15,11,05,25.30
2007,08,15,11,06,25.30
2007,08,15,11,07,25.20
2007,08,15,11,08,25.20
2007,08,15,11,09,25.10
2007,08,15,11,10,25.10
2007,08,15,11,11,25.00
2007,08,15,11,12,24.90
2007,08,15,11,13,24.90
2007,08,15,11,14,24.90
2007,08,15,11,15,25.00
2007,08,15,11,16,25.10
2007,08,15,11,17,25.20
2007,08,15,11,18,25.40
2007,08,15,11,19,25.60
2007,08,15,11,20,25.70
2007,08,15,11,21,25.70
2007,08,15,11,22,25.50
2007,08,15,11,23,25.20
2007,08,15,11,24,25.00
2007,08,15,11,25,25.00
2007,08,15,11,26,24.80
2007,08,15,11,27,24.80
2007,08,15,11,28,24.70
2007,08,15,11,29,24.60
2007,08,15,11,30,24.50
2007,08,15,11,31,24.50
2007,08,15,11,32,24.60
2007,08,15,11,33,24.70
2007,08,15,11,34,24.70
2007,08,15,11,35,24.80
2007,08,15,11,36,24.80
2007,08,15,11,37,24.80
2007,08,15,11,38,24.80
2007,08,15,11,39,24.80
2007,08,15,11,40,24.80
2007,08,15,11,41,24.80
2007,08,15,11,42,24.80
2007,08,15,11,43,24.80
2007,08,15,11,44,24.80
2007,08,15,11,45,24.70
2007,08,15,11,46,24.70
2007,08,15,11,47,24.70
2007,08,15,11,48,24.60
2007,08,15,11,49,24.50
2007,08,15,11,50,24.40
2007,08,15,11,51,24.30
2007,08,15,11,52,24.20
2007,08,15,11,53,24.20
2007,08,15,11,54,24.20
2007,08,15,11,55,24.30
2007,08,15,11,56,24.40
2007,08,15,11,57,24.60
2007,08,15,11,58,24.60
2007,08,15,11,59,24.50
2007,08,15,12,00,24.40
2007,08,15,12,01,24.30
2007,08,15,12,02,24.30
2007,08,15,12,03,24.30
2007,08,15,12,04,24.40
2007,08,15,12,05,24.40
2007,08,15,12,06,24.50
2007,08,15,12,07,24.60
2007,08,15,12,08,24.70
2007,08,15,12,09,24.80
2007,08,15,12,10,24.80
2007,08,15,12,11,24.80
2007,08,15,12,12,24.90
2007,08,15,12,13,24.90
2007,08,15,12,14,24.90
2007,08,15,12,15,24.90
2007,08,15,12,16,24.80
2007,08,15,12,17,24.70
2007,08,15,12,18,24.60
2007,08,15,12,19,24.60
2007,08,15,12,20,24.60
2007,08,15,12,21,24.60
2007,08,15,12,22,24.60
2007,08,15,12,23,24.60
2007,08,15,12,24,24.50
2007,08,15,12,25,24.50
2007,08,15,12,26,24.50
2007,08,15,12,27,24.60
2007,08,15,12,28,24.60
2007,08,15,12,29,24.60
2007,08,15,12,30,24.70
2007,08,15,12,31,24.80
2007,08,15,12,32,24.80
2007,08,15,12,33,24.90
2007,08,15,12,34,24.90
2007,08,15,12,35,25.00
2007,08,15,12,36,25.00
2007,08,15,12,37,25.10
2007,08,15,12,38,25.20
2007,08,15,12,39,25.20
2007,08,15,12,40,25.30
2007,08,15,12,41,25.20
2007,08,15,12,42,25.10
2007,08,15,12,43,25.20
2007,08,15,12,44,25.20
2007,08,15,12,45,25.20
2007,08,15,12,46,25.20
2007,08,15,12,47,25.20
2007,08,15,12,48,25.30
2007,08,15,12,49,25.40
2007,08,15,12,50,25.50
2007,08,15,12,51,25.70
2007,08,15,12,52,25.70
2007,08,15,12,53,25.80
2007,08,15,12,54,25.90
2007,08,15,12,55,26.00
2007,08,15,12,56,26.00
2007,08,15,12,57,25.90
2007,08,15,12,58,25.80
2007,08,15,12,59,25.60
2007,08,15,13,00,25.50
2007,08,15,13,01,25.30
2007,08,15,13,02,25.20
2007,08,15,13,03,25.30
2007,08,15,13,04,25.40
2007,08,15,13,05,25.40
2007,08,15,13,06,25.50
2007,08,15,13,07,25.70
2007,08,15,13,08,25.90
2007,08,15,13,09,26.00
2007,08,15,13,10,26.20
2007,08,15,13,11,26.40
2007,08,15,13,12,26.50
2007,08,15,13,13,26.40
2007,08,15,13,14,26.30
2007,08,15,13,15,26.40
2007,08,15,13,16,26.40
2007,08,15,13,17,26.50
2007,08,15,13,18,26.60
2007,08,15,13,19,26.60
2007,08,15,13,20,26.70
2007,08,15,13,21,26.60
2007,08,15,13,22,26.30
2007,08,15,13,23,26.20
2007,08,15,13,24,26.00
2007,08,15,13,25,25.90
2007,08,15,13,26,25.80
2007,08,15,13,27,25.90
2007,08,15,13,28,25.90
2007,08,15,13,29,25.90
2007,08,15,13,30,25.90
2007,08,15,13,31,25.90
2007,08,15,13,32,25.80
2007,08,15,13,33,25.80
2007,08,15,13,34,25.80
2007,08,15,13,35,25.70
2007,08,15,13,36,25.80
2007,08,15,13,37,25.80
2007,08,15,13,38,25.70
2007,08,15,13,39,25.60
2007,08,15,13,40,25.60
2007,08,15,13,41,25.70
2007,08,15,13,42,25.70
2007,08,15,13,43,25.80
2007,08,15,13,44,25.80
2007,08,15,13,45,25.90
2007,08,15,13,46,26.00
2007,08,15,13,47,26.20
2007,08,15,13,48,26.30
2007,08,15,13,49,26.30
2007,08,15,13,50,26.30
2007,08,15,13,51,26.20
2007,08,15,13,52,26.10
2007,08,15,13,53,26.00
2007,08,15,13,54,25.90
2007,08,15,13,55,25.90
2007,08,15,13,56,25.80
2007,08,15,13,57,25.70
2007,08,15,13,58,25.60
2007,08,15,13,59,25.40
2007,08,15,14,00,25.40
2007,08,15,14,01,25.30
2007,08,15,14,02,25.40
2007,08,15,14,03,25.50
2007,08,15,14,04,25.50
2007,08,15,14,05,25.60
2007,08,15,14,06,25.70
2007,08,15,14,07,25.70
2007,08,15,14,08,25.90
2007,08,15,14,09,25.90
2007,08,15,14,10,25.90
2007,08,15,14,11,25.90
2007,08,15,14,12,26.00
2007,08,15,14,13,26.10
2007,08,15,14,14,26.20
2007,08,15,14,15,26.20
2007,08,15,14,16,26.20
2007,08,15,14,17,26.10
2007,08,15,14,18,26.20
2007,08,15,14,19,26.30
2007,08,15,14,20,26.40
2007,08,15,14,21,26.60
2007,08,15,14,22,26.80
2007,08,15,14,23,27.00
2007,08,15,14,24,27.10
2007,08,15,14,25,27.30
2007,08,15,14,26,27.40
2007,08,15,14,27,27.40
2007,08,15,14,28,27.40
2007,08,15,14,29,27.20
2007,08,15,14,30,27.10
2007,08,15,14,31,26.90
2007,08,15,14,32,26.80
2007,08,15,14,33,26.70
2007,08,15,14,34,26.60
2007,08,15,14,35,26.60
2007,08,15,14,36,26.50
2007,08,15,14,37,26.50
2007,08,15,14,38,26.50
2007,08,15,14,39,26.50
2007,08,15,14,40,26.50
2007,08,15,14,41,26.50
2007,08,15,14,42,26.50
2007,08,15,14,43,26.40
2007,08,15,14,44,26.30
2007,08,15,14,45,26.30
2007,08,15,14,46,26.30
2007,08,15,14,47,26.40
2007,08,15,14,48,26.40
2007,08,15,14,49,26.60
2007,08,15,14,50,26.70
2007,08,15,14,51,26.80
2007,08,15,14,52,26.90
2007,08,15,14,53,26.90
2007,08,15,14,54,26.90
2007,08,15,14,55,26.90
2007,08,15,14,56,26.90
2007,08,15,14,57,26.80
2007,08,15,14,58,26.90
2007,08,15,14,59,27.00
2007,08,15,15,00,27.10
2007,08,15,15,01,27.10
2007,08,15,15,02,27.00
2007,08,15,15,03,26.90
2007,08,15,15,04,26.80
2007,08,15,15,05,26.90
2007,08,15,15,06,26.90
2007,08,15,15,07,26.90
2007,08,15,15,08,26.80
2007,08,15,15,09,26.80
2007,08,15,15,10,26.80
2007,08,15,15,11,26.90
2007,08,15,15,12,27.10
2007,08,15,15,13,27.20
2007,08,15,15,14,27.40
2007,08,15,15,15,27.50
2007,08,15,15,16,27.60
2007,08,15,15,17,27.70
2007,08,15,15,18,27.80
2007,08,15,15,19,27.90
2007,08,15,15,20,27.90
2007,08,15,15,21,27.90
2007,08,15,15,22,27.90
2007,08,15,15,23,27.80
2007,08,15,15,24,27.60
2007,08,15,15,25,27.40
2007,08,15,15,26,27.10
2007,08,15,15,27,26.80
2007,08,15,15,28,26.70
2007,08,15,15,29,26.60
2007,08,15,15,30,26.50
2007,08,15,15,31,26.50
2007,08,15,15,32,26.50
2007,08,15,15,33,26.40
2007,08,15,15,34,26.40
2007,08,15,15,35,26.50
2007,08,15,15,36,26.60
2007,08,15,15,37,26.70
2007,08,15,15,38,26.70
2007,08,15,15,39,26.90
2007,08,15,15,40,27.00
2007,08,15,15,41,27.00
2007,08,15,15,42,27.10
2007,08,15,15,43,27.00
2007,08,15,15,44,26.90
2007,08,15,15,45,26.90
2007,08,15,15,46,26.90
2007,08,15,15,47,26.90
2007,08,15,15,48,26.90
2007,08,15,15,49,27.00
2007,08,15,15,50,27.10
2007,08,15,15,51,27.20
2007,08,15,15,52,27.40
2007,08,15,15,53,27.60
2007,08,15,15,54,27.60
2007,08,15,15,55,27.60
2007,08,15,15,56,27.50
2007,08,15,15,57,27.40
2007,08,15,15,58,27.40
2007,08,15,15,59,27.40
2007,08,15,16,00,27.40
2007,08,15,16,01,27.40
2007,08,15,16,02,27.50
2007,08,15,16,03,27.60
2007,08,15,16,04,27.70
2007,08,15,16,05,27.80
2007,08,15,16,06,28.00
2007,08,15,16,07,28.00
2007,08,15,16,08,28.10
2007,08,15,16,09,28.20
2007,08,15,16,10,28.30
2007,08,15,16,11,28.30
2007,08,15,16,12,28.30
2007,08,15,16,13,28.20
2007,08,15,16,14,28.20
2007,08,15,16,15,28.20
2007,08,15,16,16,28.20
2007,08,15,16,17,28.30
2007,08,15,16,18,28.40
2007,08,15,16,19,28.40
2007,08,15,16,20,28.60
2007,08,15,16,21,28.70
2007,08,15,16,22,28.80
2007,08,15,16,23,28.80
2007,08,15,16,24,28.80
2007,08,15,16,25,28.80
2007,08,15,16,26,28.80
2007,08,15,16,27,28.70
2007,08,15,16,28,28.70
2007,08,15,16,29,28.60
2007,08,15,16,30,28.50
2007,08,15,16,31,28.40
2007,08,15,16,32,28.20
2007,08,15,16,33,28.00
2007,08,15,16,34,27.80
2007,08,15,16,35,27.80
2007,08,15,16,36,27.90
2007,08,15,16,37,28.00
2007,08,15,16,38,28.00
2007,08,15,16,39,28.10
2007,08,15,16,40,28.10
2007,08,15,16,41,28.20
2007,08,15,16,42,28.20
2007,08,15,16,43,28.30
2007,08,15,16,44,28.30
2007,08,15,16,45,28.50
2007,08,15,16,46,28.60
2007,08,15,16,47,28.70
2007,08,15,16,48,28.70
2007,08,15,16,49,28.70
2007,08,15,16,50,28.80
2007,08,15,16,51,28.80
2007,08,15,16,52,28.90
2007,08,15,16,53,28.90
2007,08,15,16,54,29.00
2007,08,15,16,55,29.00
2007,08,15,16,56,29.00
2007,08,15,16,57,28.90
2007,08,15,16,58,28.90
2007,08,15,16,59,29.00
2007,08,15,17,00,29.00
2007,08,15,17,01,29.10
2007,08,15,17,02,29.10
2007,08,15,17,03,29.20
2007,08,15,17,04,29.20
2007,08,15,17,05,29.20
2007,08,15,17,06,29.30
2007,08,15,17,07,29.30
2007,08,15,17,08,29.20
2007,08,15,17,09,29.20
2007,08,15,17,10,29.20
2007,08,15,17,11,29.20
2007,08,15,17,12,29.30
2007,08,15,17,13,29.30
2007,08,15,17,14,29.20
2007,08,15,17,15,29.20
2007,08,15,17,16,29.10
2007,08,15,17,17,28.90
2007,08,15,17,18,28.80
2007,08,15,17,19,28.60